Terug naar catalogus

COSMOS 1275 DEB

ActiefPO
NORAD 12753·DEBRIS·🇷🇺 Russia

Gelanceerd Jun 4, 1981 vanaf Plesetsk Cosmodrome

Loading…

Volgende Passages (komende 24 uur)

TLE

VersSource: Space-Track

Epoch: Sep 13, 2026, 22:40 UTC

1 12753U 81053CW  26256.94491969  .00000540  00000-0  50559-3 0  9993
2 12753  82.8027  54.3443 0093336 143.2577 347.0988 13.78028727253298

Volg COSMOS 1275 DEB in realtime met AllMySat

Download on the App Store